Tiempo cada hora Almansa

Hoy, 28 Julio, Miércoles

Tiempo Temperatura Precipitaciones Viento Presión Humedad
00:00 +23°C° 0 mm 1 mps 702 mmHg 70%
01:00 +23°C° 0 mm 1 mps 702 mmHg 71%
02:00 +23°C° 0 mm 1 mps 701 mmHg 73%
03:00 +22°C° 0 mm 1 mps 701 mmHg 74%
04:00 +23°C° 0 mm 1 mps 701 mmHg 72%
05:00 +23°C° 0 mm 1 mps 702 mmHg 69%
06:00 +23°C° 0 mm 1 mps 702 mmHg 67%
07:00 +25°C° 0 mm 1 mps 702 mmHg 59%
08:00 +27°C° 0 mm 2 mps 702 mmHg 50%
09:00 +28°C° 0 mm 2 mps 703 mmHg 42%
10:00 +30°C° 0 mm 3 mps 703 mmHg 39%
11:00 +32°C° 0 mm 4 mps 703 mmHg 36%
12:00 +33°C° 0 mm 4 mps 703 mmHg 33%
13:00 +34°C° 0 mm 5 mps 703 mmHg 33%
14:00 +34°C° 0 mm 5 mps 703 mmHg 34%
15:00 +34°C° 0 mm 5 mps 703 mmHg 34%
16:00 +33°C° 0 mm 5 mps 703 mmHg 38%
17:00 +32°C° 0 mm 5 mps 703 mmHg 43%
18:00 +29°C° 0 mm 5 mps 703 mmHg 47%
19:00 +28°C° 0 mm 4 mps 703 mmHg 54%
20:00 +26°C° 0 mm 3 mps 703 mmHg 60%
21:00 +25°C° 0 mm 2 mps 703 mmHg 67%
22:00 +24°C° 0 mm 2 mps 703 mmHg 71%
23:00 +23°C° 0 mm 2 mps 703 mmHg 76%

Mañana, 29 Julio, Jueves

Tiempo Temperatura Precipitaciones Viento Presión Humedad
00:00 +23°C° 0 mm 2 mps 703 mmHg 80%
01:00 +22°C° 0 mm 1 mps 703 mmHg 83%
02:00 +22°C° 0 mm 1 mps 702 mmHg 85%
03:00 +21°C° 0 mm 1 mps 702 mmHg 87%
04:00 +22°C° 0 mm 1 mps 702 mmHg 85%
05:00 +22°C° 0 mm 1 mps 702 mmHg 83%
06:00 +22°C° 0 mm 1 mps 703 mmHg 82%
07:00 +24°C° 0 mm 1 mps 703 mmHg 68%
08:00 +26°C° 0 mm 2 mps 703 mmHg 54%
09:00 +29°C° 0 mm 2 mps 704 mmHg 40%
10:00 +30°C° 0 mm 3 mps 704 mmHg 35%
11:00 +33°C° 0 mm 4 mps 704 mmHg 31%
12:00 +35°C° 0 mm 4 mps 704 mmHg 26%
13:00 +35°C° 0 mm 4 mps 703 mmHg 27%
14:00 +36°C° 0 mm 4 mps 703 mmHg 27%
15:00 +36°C° 0 mm 4 mps 703 mmHg 27%
16:00 +36°C° 0 mm 4 mps 702 mmHg 28%
17:00 +36°C° 0 mm 4 mps 702 mmHg 30%
18:00 +35°C° 0 mm 4 mps 702 mmHg 31%
19:00 +33°C° 0 mm 3 mps 702 mmHg 39%
20:00 +30°C° 0 mm 3 mps 702 mmHg 48%
21:00 +28°C° 0 mm 2 mps 702 mmHg 56%
22:00 +27°C° 0 mm 2 mps 702 mmHg 60%
23:00 +26°C° 0 mm 2 mps 702 mmHg 63%

Pasado mañana, 30 Julio, Viernes

Tiempo Temperatura Precipitaciones Viento Presión Humedad
00:00 +25°C° 0 mm 2 mps 702 mmHg 67%
01:00 +25°C° 0 mm 2 mps 701 mmHg 62%
02:00 +26°C° 0 mm 3 mps 701 mmHg 58%
03:00 +26°C° 0 mm 3 mps 701 mmHg 53%
04:00 +26°C° 0 mm 3 mps 701 mmHg 47%
05:00 +26°C° 0 mm 3 mps 702 mmHg 41%
06:00 +26°C° 0 mm 3 mps 702 mmHg 35%
07:00 +28°C° 0 mm 3 mps 702 mmHg 29%
08:00 +32°C° 0 mm 4 mps 703 mmHg 23%
09:00 +34°C° 0 mm 4 mps 703 mmHg 17%
10:00 +36°C° 0 mm 4 mps 703 mmHg 15%
11:00 +37°C° 0 mm 5 mps 703 mmHg 13%
12:00 +40°C° 0 mm 5 mps 703 mmHg 11%
13:00 +41°C° 0 mm 6 mps 702 mmHg 11%
14:00 +43°C° 0 mm 7 mps 702 mmHg 11%
15:00 +43°C° 0 mm 9 mps 701 mmHg 11%
16:00 +41°C° 0 mm 8 mps 701 mmHg 12%
17:00 +41°C° 0 mm 7 mps 701 mmHg 13%
18:00 +40°C° 0 mm 6 mps 701 mmHg 13%
19:00 +36°C° 0 mm 5 mps 701 mmHg 17%
20:00 +33°C° 0 mm 3 mps 701 mmHg 20%
21:00 +30°C° 0 mm 2 mps 701 mmHg 23%
22:00 +29°C° 0 mm 2 mps 701 mmHg 25%
23:00 +28°C° 0 mm 2 mps 701 mmHg 27%

31 Julio, Sábado

Tiempo Temperatura Precipitaciones Viento Presión Humedad
00:00 +27°C° 0 mm 2 mps 701 mmHg 29%
01:00 +26°C° 0 mm 2 mps 701 mmHg 38%
02:00 +25°C° 0 mm 2 mps 701 mmHg 47%
03:00 +23°C° 0 mm 2 mps 700 mmHg 56%
04:00 +23°C° 0 mm 2 mps 700 mmHg 61%
05:00 +23°C° 0 mm 2 mps 700 mmHg 65%
06:00 +23°C° 0 mm 2 mps 700 mmHg 70%
07:00 +25°C° 0 mm 2 mps 701 mmHg 59%
08:00 +27°C° 0 mm 2 mps 701 mmHg 48%
09:00 +29°C° 0 mm 2 mps 701 mmHg 38%
10:00 +31°C° 0 mm 2 mps 701 mmHg 32%
11:00 +32°C° 0 mm 2 mps 701 mmHg 26%
12:00 +35°C° 0 mm 2 mps 701 mmHg 20%
13:00 +36°C° 0 mm 3 mps 700 mmHg 20%
14:00 +36°C° 0 mm 5 mps 700 mmHg 20%
15:00 +38°C° 0 mm 6 mps 699 mmHg 20%
16:00 +36°C° 0.1 mm 6 mps 699 mmHg 24%
17:00 +34°C° 0.1 mm 5 mps 699 mmHg 28%
18:00 +33°C° 0.1 mm 4 mps 699 mmHg 31%
19:00 +30°C° 0.1 mm 4 mps 699 mmHg 38%
20:00 +28°C° 0.1 mm 3 mps 700 mmHg 46%
21:00 +26°C° 0.1 mm 3 mps 700 mmHg 53%
22:00 +25°C° 0 mm 3 mps 700 mmHg 58%
23:00 +24°C° 0 mm 2 mps 700 mmHg 63%

1 Agosto, Domingo

Tiempo Temperatura Precipitaciones Viento Presión Humedad
00:00 +23°C° 0 mm 2 mps 700 mmHg 67%
01:00 +23°C° 0 mm 2 mps 700 mmHg 71%
02:00 +23°C° 0 mm 2 mps 700 mmHg 75%
03:00 +21°C° 0 mm 2 mps 700 mmHg 79%
04:00 +21°C° 0.1 mm 2 mps 700 mmHg 79%
05:00 +21°C° 0.1 mm 2 mps 700 mmHg 80%
06:00 +22°C° 0.1 mm 1 mps 701 mmHg 80%
07:00 +23°C° 0 mm 2 mps 701 mmHg 72%
08:00 +24°C° 0 mm 2 mps 701 mmHg 65%
09:00 +25°C° 0 mm 2 mps 702 mmHg 58%
10:00 +27°C° 0 mm 3 mps 702 mmHg 51%
11:00 +28°C° 0 mm 3 mps 702 mmHg 44%
12:00 +30°C° 0 mm 4 mps 702 mmHg 37%
13:00 +30°C° 0 mm 4 mps 701 mmHg 39%
14:00 +29°C° 0 mm 5 mps 701 mmHg 41%
15:00 +29°C° 0 mm 6 mps 701 mmHg 43%
16:00 +28°C° 0.2 mm 6 mps 701 mmHg 49%
17:00 +27°C° 0.2 mm 6 mps 700 mmHg 54%
18:00 +26°C° 0.2 mm 5 mps 700 mmHg 59%
19:00 +25°C° 0.2 mm 5 mps 701 mmHg 66%
20:00 +23°C° 0.2 mm 4 mps 701 mmHg 73%
21:00 +22°C° 0.2 mm 3 mps 701 mmHg 80%
22:00 +22°C° 0.1 mm 3 mps 701 mmHg 83%
23:00 +23°C° 0.1 mm 2 mps 701 mmHg 85%

2 Agosto, Lunes

Tiempo Temperatura Precipitaciones Viento Presión Humedad
00:00 +21°C° 0.1 mm 2 mps 701 mmHg 88%
01:00 +21°C° 0 mm 2 mps 701 mmHg 89%
02:00 +22°C° 0 mm 1 mps 701 mmHg 91%
03:00 +21°C° 0 mm 1 mps 701 mmHg 92%
04:00 +21°C° 0 mm 1 mps 701 mmHg 92%
05:00 +21°C° 0 mm 1 mps 701 mmHg 91%
06:00 +21°C° 0 mm 1 mps 701 mmHg 91%
07:00 +23°C° 0 mm 1 mps 701 mmHg 80%
08:00 +24°C° 0 mm 1 mps 701 mmHg 70%
09:00 +26°C° 0 mm 1 mps 701 mmHg 59%
10:00 +27°C° 0 mm 2 mps 701 mmHg 50%
11:00 +29°C° 0 mm 2 mps 701 mmHg 41%
12:00 +31°C° 0 mm 3 mps 701 mmHg 32%
13:00 +31°C° 0 mm 3 mps 701 mmHg 32%
14:00 +33°C° 0 mm 4 mps 700 mmHg 31%
15:00 +34°C° 0 mm 4 mps 700 mmHg 30%
16:00 +32°C° 0.1 mm 4 mps 700 mmHg 37%
17:00 +30°C° 0.1 mm 4 mps 699 mmHg 43%
18:00 +29°C° 0.1 mm 4 mps 699 mmHg 50%
19:00 +27°C° 0.1 mm 3 mps 699 mmHg 58%
20:00 +26°C° 0.1 mm 2 mps 700 mmHg 66%
21:00 +24°C° 0.1 mm 2 mps 700 mmHg 74%
22:00 +24°C° 0 mm 1 mps 700 mmHg 77%
23:00 +23°C° 0 mm 1 mps 700 mmHg 80%
Mostrar más

Necesitamos Su Consentimiento

Meteoprog y nuestros Proveedores de Servicios pueden almacenar y acceder a sus datos personales como cookies, identificadores de dispositivo u otras tecnologías similares de su dispositivo y procesar dichos datos para personalizar contenido y anuncios, además de ofrecer funciones de redes sociales y analizar el tráfico.

  • Almacenar y/o acceder a información en su dispositivo

    Se puede almacenar o acceder a cookies, identificadores de dispositivo u otra información de su dispositivo para los fines anteriormente indicados.

  • Anuncios y contenido personalizados, medición de anuncios y contenido, percepciones del público, y desarrollo de productos

    Los anuncios y el contenido pueden personalizarse en base a su perfil. Se pueden añadir más datos para personalizar mejor los anuncios y contenidos. Se puede medir el rendimiento de los anuncios y contenidos. Se puede obtener la percepción sobre el público que ha visto los anuncios y contenidos. Dichos datos pueden usarse para desarrollar o mejorar la experiencia del usuario, sistemas y software.

Al hacer clic en ‘Estoy De Acuerdo’ usted permitirá el uso de las cookies, identificadores de dispositivo, balizas web u otras tecnologías similares indicadas. Su configuración puede cambiarse desde el navegador de su dispositivo.

Para ciertos fines, los intereses legítimos pueden ser considerados por encima del consentimiento. Puede leer más sobre ello en nuestra Política de Privacidad y Cookies.